Location: Kalisz
(51.7636°N, 18.0893°E)
Time: 16:45:10
(UTC+01:00)

ISS - Pass Details

Date: 29 January 2019
Orbit: 403 x 411 km, 51.6° (Epoch: 20 February)

Event Time Altitude Azimuth Distance (km) Brightness Sun altitude
Rises 19:52:50 0° 277° (W) 2,341 1.2 -31.2°
Reaches altitude 10° 19:54:56 10° 276° (W) 1,481 -0.1 -31.5°
Enters shadow 19:55:07 11° 276° (W) 1,405 -0.3 -31.5°
